Regional Weather Roundup
Issued by NWS Charleston, SC

Current Version | Previous Version | Graphics & Text | Print | Product List | Glossary On
Versions: 1 2 3 4 5 6 7 8 9 10 11 12 13 14 15 16 17 18 19 20 21 22 23 24 25 26 27 28 29 30 31 32 33 34 35 36 37 38 39 40 41 42 43 44 45 46 47 48 49 50
000
ASUS42 KCHS 210012
RWRCHS

REGIONAL WEATHER ROUNDUP
NATIONAL WEATHER SERVICE CHARLESTON SC
800 PM EDT SUN AUG 20 2017

NOTE: "FAIR" INDICATES FEW OR NO CLOUDS BELOW 12,000 FEET WITH NO
SIGNIFICANT WEATHER AND/OR OBSTRUCTIONS TO VISIBILITY.

NOT ALL STATIONS ARE QUALITY CONTROLLED. USE DATA WITH CAUTION...
ESPECIALLY DEWPOINT OBSERVATIONS.

SCZ027-030-031-034>040-042>050-210100-
...SOUTHEAST SOUTH CAROLINA...

CITY           SKY/WX    TMP DP  RH WIND       PRES   REMARKS
N CHARLESTON   MOCLDY    84  76  76 S12       30.08R HX  93
6HR MIN TEMP:  83; 6HR MAX TEMP:  94; 6HR PCP:  0.04;

WATERFRONT PRK   N/A     86  79  79 S7        29.92R HX  99
JOHNS ISLAND   FAIR      84  77  79 SE6       30.08R HX  94
PINOPOLIS        N/A     86  77  74 CALM      30.01R HX  97
MONCKS CORNER  FAIR      82  75  78 CALM      30.08S
SUMMERVILLE    FAIR      82  77  83 CALM      30.09R HX  91
BEAUFORT MCAS  CLOUDY    86  81  85 SE5       30.08R HX 102
6HR MIN TEMP:  86; 6HR MAX TEMP:  95; 6HR PCP: TRACE;

BEAUFORT ARPT  FAIR      82  77  83 SE3       30.07S HX  91
HILTON HEAD IS PTCLDY    84  79  84 SE7       30.08S HX  96
WALTERBORO     MOCLDY    82  77  83 SE3       30.09R HX  91
ALLENDALE      NOT AVBL

...SOUTHERN MIDLANDS AND PEE DEE...

CITY           SKY/WX    TMP DP  RH WIND       PRES   REMARKS
GEORGETOWN     FAIR      81  81 100 CALM      30.10R HX  91
KINGSTREE      FAIR      82  73  74 SE5       30.08S
ORANGEBURG     CLOUDY    86  74  67 S7        30.08R HX  94
6HR MIN TEMP:  86; 6HR MAX TEMP:  95;

BARNWELL       FAIR      90  77  66 SE8       30.07R HX 102
AIKEN          FAIR      86  68  54 E5        30.11R
MANNING        FAIR      86  77  74 SW6       30.08S HX  97
COLUMBIA       PTCLDY    89  71  55 E6        30.06R HX  95
6HR MIN TEMP:  89; 6HR MAX TEMP:  96;

SUMTER         CLOUDY    89  70  53 SE5       30.06R HX  95
6HR MIN TEMP:  89; 6HR MAX TEMP:  97; 6HR PCP: TRACE;

FLORENCE       CLOUDY    87  75  67 SE8       30.09R HX  96
6HR MIN TEMP:  87; 6HR MAX TEMP:  94;

MYRTLE BEACH   PTCLDY    84  77  79 MISG      30.11R HX  94
N MYRTLE BEACH CLEAR     83  75  77 SE5       30.10R HX  90
6HR MIN TEMP:  83; 6HR MAX TEMP:  88;


$$

GAZ063-065-086>088-099>101-113>116-118-119-134>141-150-210100-
...SOUTHEAST GEORGIA...

CITY           SKY/WX    TMP DP  RH WIND       PRES   REMARKS
SAVANNAH ARPT  CLOUDY    85  77  77 SE8       30.08R HX  95
6HR MIN TEMP:  85; 6HR MAX TEMP:  96;

HUNTER AAF     MOCLDY    85  78  79 SE7       30.05R HX  95
6HR MIN TEMP:  83; 6HR MAX TEMP:  91; 6HR PCP:  0.01;

FORT STEWART   CLOUDY    80  74  83 S3        30.06R
6HR MIN TEMP:  80; 6HR MAX TEMP:  94; 6HR PCP:  0.03;

STATESBORO     CLOUDY    85  73  65 SE3       30.08R HX  92
SYLVANIA       CLOUDY    85  80  84 CALM      30.09R HX  99
CLAXTON        FAIR      84  77  80 CALM      30.08R HX  93

...CSRA...CENTRAL AND FAR SOUTHEAST GEORGIA...

CITY           SKY/WX    TMP DP  RH WIND       PRES   REMARKS
THOMSON        CLEAR     85  75  72 CALM      30.12R HX  93
AUGUSTA-BUSH   PTCLDY    85  77  77 E3        30.04R HX  95
6HR MIN TEMP:  85; 6HR MAX TEMP:  96;

AUGUSTA-DANIEL CLEAR     92  65  40 SE3       30.07R HX  94
SWAINSBORO     FAIR      88  73  62 SE8       30.08R HX  96
VIDALIA        CLOUDY    86  73  66 SE10      30.07R HX  93
EASTMAN        FAIR      92  53  26 N5        30.07R
HAZLEHURST     FAIR      88  60  38 SE6       30.05R
ALMA           CLOUDY    82  72  71 SE6       30.06R
6HR MIN TEMP:  82; 6HR MAX TEMP:  99;

WAYCROSS       MOCLDY    79  70  75 S5        30.07R
JESUP          FAIR      79  72  78 E3        30.07S
BAXLEY         FAIR      81  72  74 SE3       30.06R
BRUNSWICK      CLOUDY    84  73  70 SE5       30.08R HX  91
SAINT SIMONS   PTCLDY    85  77  77 SE8       30.06R HX  95
6HR MIN TEMP:  85; 6HR MAX TEMP:  90;


$$

SCZ027-028-034-036>038-045-046-048>050-GAZ119-141-210100-
...LAKE AND SUPPLEMENTAL COASTAL OBSERVATIONS...

STATION/POSITION TIME  TEMP    WIND        PRES    WAVE   SWELL
                       AIR SEA DIR/SP/G            HT/PER HT/PER/DIR
                 (UTC) (F)     (DEG/KT/KT) (MB)    (FT/S) (FT/S/D)
WINYAH BAY       2245   86     150/  8     1019.0
LAKE MURRAY      2320   91     100/  5/ 10 1016.6
ACE BASIN NERRS  2245   86     140/  2     1018.0
FORT PULASKI     2342   85 87  150/  5/  8 1018.8R
SAPELO ISLAND    2300   85     140/  2     1018.0

$$

ANZ835-935-AMZ111-154-330-350-352-354-370-450-454-472-210100-
...C-MAN AND BUOY OBSERVATIONS...

STATION/POSITION TIME  TEMP    WIND        PRES    WAVE   SWELL
                       AIR SEA DIR/SP/G            HT/PER HT/PER/DIR
                 (UTC) (F)     (DEG/KT/KT) (MB)    (FT/S) (FT/S/D)
BUOY 41004       2350   85 86  170/ 10/ 12 1018.2S   3/ 8   3/130/ 8
BUOY 41008       2250   85 86  150/ 12/ 14 1017.4    2/ 8   2/120/ 8
FOLLY BEACH CMAN 2300   86     170/  9/ 11 1019.2R
CAPERS NEARSHORE 2308   84 88  170/ 10/ 16 1018.1R
FRIPP NEARSHORE  2308   85     160/ 10/ 12 1017.8S


STATION/POSITION TIME  TEMP    WIND        PRES    WAVE   SWELL
                       AIR SEA DIR/SP/G            HT/PER HT/PER/DIR
                 (UTC) (F)     (DEG/KT/KT) (MB)    (FT/S) (FT/S/D)
5E ST. MARYS GA  0000      85                N/A     3/ 8
FRYING PAN BUOY  2350   82 85  240/  6/  8 1019.3R   2/ 9   2/110/ 9
BUOY 41025       2250   82 85   60/  6/  6 1019.3    2/ 9   2/120/ 9
CAPE LOOKOUT NC  2300   82     100/  6/  7 1019.0R
BUOY 41002       2250   83 85  160/  8/  8 1020.1    3/ 8   3/100/ 8
BUOY 41010       2350   79 85   90/  4/  8 1017.8F   2/ 9   2/110/ 9
ST AUGUSTINE FL  2300   83 83  150/ 15/ 16 1017.9F


$$




USA.gov is the U.S. government's official web portal to all federal, state and local government web resources and services.